Change the Weather History Date:

Friday, September 6, 2013

  Actual Average Record
Temperature  
Mean Temperature 74 °F 72 °F  
Max Temperature 93 °F 86 °F 104 °F (1977)
Min Temperature 54 °F 57 °F 45 °F (1942)
Degree Days  
Heating Degree Days 0 0  
Month to date heating degree days 0 0  
Since 1 July heating degree days 0 7  
Cooling Degree Days 9 7  
Month to date cooling degree days 51 42  
Year to date cooling degree days 875 667  
Growing Degree Days 24 (Base 50)    
Moisture  
Dew Point 48 °F    
Average Humidity 52    
Maximum Humidity 86    
Minimum Humidity 18    
Precipitation  
Precipitation 0.00 in 0.00 in 0.00 in (2015)
Month to date precipitation 0.01 0.01  
Year to date precipitation 2.13 9.92  
Since 1 July precipitation 0.01 0.02  
Sea Level Pressure  
Sea Level Pressure 29.91 in    
Wind  
Wind Speed 4 mph (NE)    
Max Wind Speed 16 mph    
Max Gust Speed 22 mph    
Visibility 10 miles    
Events      
T = Trace of Precipitation, MM = Missing Value Source: NWS Daily Summary

Daily Weather History Graph

Daily Weather History Graph

Search for Another Location

Airport or City:

Trip Planner

Search our weather history database for the weather conditions in past years. The results will help you decide how hot, cold, wet, or windy it might be!

Date:

Astronomy

Sep. 06, 2013 Rise Set
Actual Time 6:41 AM PDT 7:28 PM PDT
Civil Twilight 6:15 AM PDT 7:54 PM PDT
Nautical Twilight 5:43 AM PDT 8:26 PM PDT
Astronomical Twilight 5:11 AM PDT 8:58 PM PDT
Moon 7:57 AM PDT (9/6) 7:58 PM PDT (9/6)
Length of Visible Light 13h 39m
Length of Day
12h 46m
New Moon, 2% of the Moon is Illuminated
Sep 6
New Moon
Sep 12
First Quarter
Sep 19
Full
Sep 26
Last Quarter
Oct 4
New

Hourly Weather History & Observations

Time (PDT) Temp. Dew Point Humidity Pressure Visibility Wind Dir Wind Speed Gust Speed Precip Events Conditions
12:53 AM 62.1 °F 55.9 °F 80% 29.99 in 10.0 mi WNW 4.6 mph - N/A   Clear
1:53 AM 61.0 °F 55.0 °F 81% 29.98 in 10.0 mi WNW 3.5 mph - N/A   Clear
2:53 AM 59.0 °F 54.0 °F 83% 29.98 in 10.0 mi WNW 6.9 mph - N/A   Clear
3:53 AM 57.9 °F 53.1 °F 84% 29.96 in 10.0 mi Calm Calm - N/A   Clear
4:53 AM 57.0 °F 52.0 °F 83% 29.96 in 10.0 mi Calm Calm - N/A   Clear
5:53 AM 55.9 °F 52.0 °F 87% 29.96 in 10.0 mi ENE 3.5 mph - N/A   Clear
6:53 AM 55.0 °F 51.1 °F 86% 29.97 in 10.0 mi Calm Calm - N/A   Clear
7:53 AM 59.0 °F 53.1 °F 81% 29.99 in 10.0 mi Calm Calm - N/A   Clear
8:53 AM 64.0 °F 52.0 °F 65% 29.99 in 10.0 mi Calm Calm - N/A   Clear
9:53 AM 70.0 °F 52.0 °F 53% 29.97 in 10.0 mi Calm Calm - N/A   Clear
10:53 AM 80.1 °F 48.9 °F 34% 29.96 in 10.0 mi Variable 4.6 mph - N/A   Clear
11:53 AM 84.0 °F 48.9 °F 29% 29.94 in 10.0 mi Variable 4.6 mph 20.7 mph N/A   Clear
12:53 PM 88.0 °F 45.0 °F 22% 29.91 in 10.0 mi ENE 12.7 mph 20.7 mph N/A   Clear
1:53 PM 89.1 °F 44.1 °F 21% 29.88 in 10.0 mi NE 8.1 mph - N/A   Clear
2:53 PM 91.9 °F 45.0 °F 20% 29.86 in 10.0 mi ENE 10.4 mph 21.9 mph N/A   Clear
3:53 PM 91.9 °F 45.0 °F 20% 29.84 in 10.0 mi NE 11.5 mph - N/A   Clear
4:53 PM 93.0 °F 44.1 °F 18% 29.82 in 10.0 mi ENE 9.2 mph - N/A   Clear
5:53 PM 91.9 °F 42.1 °F 18% 29.81 in 10.0 mi NE 10.4 mph - N/A   Clear
6:53 PM 90.0 °F 42.1 °F 19% 29.81 in 10.0 mi ENE 10.4 mph - N/A   Clear
7:53 PM 84.9 °F 43.0 °F 23% 29.82 in 10.0 mi NE 3.5 mph - N/A   Clear
8:53 PM 80.1 °F 44.1 °F 28% 29.84 in 10.0 mi Calm Calm - N/A   Clear
9:53 PM 75.9 °F 46.0 °F 35% 29.84 in 10.0 mi Calm Calm - N/A   Clear
10:53 PM 73.9 °F 46.9 °F 38% 29.84 in 10.0 mi Calm Calm - N/A   Clear
11:53 PM 71.1 °F 45.0 °F 39% 29.84 in 10.0 mi Calm Calm - N/A   Clear